DW4604 Weather Reports


time (UTC)temp
C
wind
direction
speed
KPH
gust
KPH
rain 1hr
cm
rain 24hr
cm
rain mn
cm
humidity
%
barometer
mb
20260506070454 18 0 0.0 0.0 0.00 0.00 0.00 65 1005.4
20260506062454 18 0 0.0 0.0 0.00 0.00 0.00 66 1005.2
20260506061956 18 0 0.0 0.0 0.00 0.00 0.00 66 1005.2
20260506061455 17 0 0.0 0.0 0.00 0.00 0.00 67 1005.1
20260506050955 15 0 0.0 0.0 0.00 0.00 0.00 72 1004.8
20260506050454 15 0 0.0 0.0 0.00 0.00 0.00 73 1004.8
20260506044454 14 0 0.0 0.0 0.00 0.00 0.00 74 1004.9
20260506043954 14 0 0.0 0.0 0.00 0.00 0.00 75 1004.8
20260506042954 13 0 0.0 0.0 0.00 0.00 0.00 76 1004.9
20260506042455 13 0 0.0 0.0 0.00 0.00 0.00 76 1004.9
20260506041954 13 0 0.0 0.0 0.00 0.00 0.00 76 1004.8
20260506041454 13 0 0.0 0.0 0.00 0.00 0.00 76 1004.8
20260506040454 13 0 0.0 0.0 0.00 0.00 0.00 75 1004.8
20260506035955 13 0 0.0 0.0 0.00 0.00 0.00 75 1004.7
20260506035455 13 0 0.0 0.0 0.00 0.00 0.00 74 1004.8
20260506034955 13 0 0.0 0.0 0.00 0.00 0.00 74 1004.8
20260506033954 14 0 0.0 0.0 0.00 0.00 0.00 72 1004.7
20260506033455 14 0 0.0 0.0 0.00 0.00 0.00 71 1004.7
20260506032455 15 0 0.0 0.0 0.00 0.00 0.00 71 1004.7
20260506031955 15 0 0.0 0.0 0.00 0.00 0.00 70 1004.7
20260506031454 15 0 0.0 0.0 0.00 0.00 0.00 70 1004.7
20260506030955 15 0 0.0 0.0 0.00 0.00 0.00 70 1004.7
20260506030456 15 0 0.0 0.0 0.00 0.00 0.00 69 1004.8
20260506025955 15 0 0.0 0.0 0.00 0.00 0.00 68 1004.6
20260506024955 15 0 0.0 0.0 0.00 0.00 0.00 68 1004.6
20260506024455 15 0 0.0 0.0 0.00 0.00 0.00 68 1004.7
20260506023455 15 0 0.0 0.0 0.00 0.00 0.00 68 1004.8
20260506022955 15 0 0.0 0.0 0.00 0.00 0.00 68 1004.7
20260506021956 15 0 0.0 0.0 0.00 0.00 0.00 68 1004.7
20260506021455 15 0 0.0 0.0 0.00 0.00 0.00 68 1004.7
20260506020455 15 0 0.0 0.0 0.00 0.00 0.00 67 1004.7
20260506015956 15 0 0.0 0.0 0.00 0.00 0.00 66 1004.7
20260506014955 15 0 0.0 0.0 0.00 0.00 0.00 66 1004.5
20260506014455 15 0 0.0 0.0 0.00 0.00 0.00 65 1004.5
20260506013954 15 0 0.0 0.0 0.00 0.00 0.00 65 1004.5
20260506013455 15 0 0.0 0.0 0.00 0.00 0.00 64 1004.5
20260506012955 16 0 0.0 0.0 0.00 0.00 0.00 64 1004.5
20260506011955 16 0 0.0 0.0 0.00 0.00 0.00 64 1004.5
20260506011455 15 0 0.0 0.0 0.00 0.00 0.00 64 1004.5
20260506010955 15 0 0.0 0.0 0.00 0.00 0.00 64 1004.6
20260506010456 15 0 0.0 0.0 0.00 0.00 0.00 66 1004.7
20260506005455 14 0 0.0 0.0 0.00 0.00 0.00 68 1004.7
20260506004955 13 0 0.0 0.0 0.00 0.00 0.00 69 1004.7
20260506004455 13 0 0.0 0.0 0.00 0.00 0.00 69 1004.7
20260506003955 13 0 0.0 0.0 0.00 0.00 0.00 69 1004.7
20260506003455 13 0 0.0 0.0 0.00 0.00 0.00 68 1004.7
20260506002955 14 0 0.0 0.0 0.00 0.00 0.00 68 1004.7
20260506002456 14 0 0.0 0.0 0.00 0.00 0.00 67 1004.7
20260506001955 14 0 0.0 0.0 0.00 0.00 0.00 67 1004.7
20260506000955 14 0 0.0 0.0 0.00 0.00 0.00 67 1004.7
20260505235956 13 0 0.0 0.0 0.00 0.00 0.00 71 1004.9
20260505234955 13 0 0.0 0.0 0.00 0.00 0.00 70 1004.9
20260505234455 13 0 0.0 0.0 0.00 0.00 0.00 68 1005.0
20260505233956 13 0 0.0 0.0 0.00 0.00 0.00 68 1005.0
20260505233455 14 0 0.0 0.0 0.00 0.00 0.00 68 1005.0
20260505232956 14 0 0.0 0.0 0.00 0.00 0.00 67 1005.1
20260505232456 14 0 0.0 0.0 0.00 0.00 0.00 67 1005.0
20260505231956 15 0 0.0 0.0 0.00 0.00 0.00 66 1005.1
20260505231456 15 0 0.0 0.0 0.00 0.00 0.00 65 1005.1
20260505230956 15 0 0.0 0.0 0.00 0.00 0.00 64 1005.2
20260505230457 15 0 0.0 0.0 0.00 0.00 0.00 63 1005.2
20260505225955 16 0 0.0 0.0 0.00 0.00 0.00 62 1005.2
20260505225456 16 0 0.0 0.0 0.00 0.00 0.00 61 1005.2
20260505224955 16 0 0.0 0.0 0.00 0.00 0.00 60 1005.2
20260505224455 17 0 0.0 0.0 0.00 0.00 0.00 59 1005.3
20260505223455 17 0 0.0 0.0 0.00 0.00 0.00 59 1005.3
20260505222956 16 0 0.0 0.0 0.00 0.00 0.00 59 1005.3
20260505222457 17 0 0.0 0.0 0.00 0.00 0.00 59 1005.4
20260505221957 17 0 0.0 0.0 0.00 0.00 0.00 57 1005.4
20260505220957 17 0 0.0 0.0 0.00 0.00 0.00 57 1005.4
20260505215456 17 0 0.0 0.0 0.00 0.00 0.00 56 1005.5
20260505214956 17 0 0.0 0.0 0.00 0.00 0.00 56 1005.7
20260505214456 17 0 0.0 0.0 0.00 0.00 0.00 56 1005.6
20260505213456 17 0 0.0 0.0 0.00 0.00 0.00 56 1005.7
20260505212956 16 0 0.0 0.0 0.00 0.00 0.00 57 1005.7
20260505211455 16 0 0.0 0.0 0.00 0.00 0.00 57 1005.6
20260505210456 16 0 0.0 0.0 0.00 0.00 0.00 56 1005.7
20260505205956 16 0 0.0 0.0 0.00 0.00 0.00 57 1005.6
20260505205457 16 0 0.0 0.0 0.00 0.00 0.00 57 1005.6
20260505204956 17 0 0.0 0.0 0.00 0.00 0.00 57 1005.5
20260505204456 17 0 0.0 0.0 0.00 0.00 0.00 56 1005.6
20260505203957 17 0 0.0 0.0 0.00 0.00 0.00 54 1005.6
20260505203456 18 0 0.0 0.0 0.00 0.00 0.00 54 1005.6
20260505202956 18 0 0.0 0.0 0.00 0.00 0.00 53 1005.7
20260505201456 17 0 0.0 0.0 0.00 0.00 0.00 53 1005.6
20260505200958 17 0 0.0 0.0 0.00 0.00 0.00 53 1005.6
20260505200457 17 0 0.0 0.0 0.00 0.00 0.00 52 1005.6
20260505195956 18 0 0.0 0.0 0.00 0.00 0.00 51 1005.7
20260505195456 18 0 0.0 0.0 0.00 0.00 0.00 52 1005.7
20260505194957 18 0 0.0 0.0 0.00 0.00 0.00 51 1005.6
20260505194456 18 0 0.0 0.0 0.00 0.00 0.00 51 1005.7
20260505193456 19 0 0.0 0.0 0.00 0.00 0.00 49 1005.6
20260505192956 19 0 0.0 0.0 0.00 0.00 0.00 48 1005.6
20260505192457 20 0 0.0 0.0 0.00 0.00 0.00 47 1005.6
20260505191957 20 0 0.0 0.0 0.00 0.00 0.00 47 1005.6
20260505190957 20 0 0.0 0.0 0.00 0.00 0.00 45 1005.6
20260505190457 20 0 0.0 0.0 0.00 0.00 0.00 45 1005.5
20260505185457 21 0 0.0 0.0 0.00 0.00 0.00 44 1005.6
20260505184957 21 0 0.0 0.0 0.00 0.00 0.00 42 1005.6
20260505184457 21 0 0.0 0.0 0.00 0.00 0.00 42 1005.5
20260505183457 21 0 0.0 0.0 0.00 0.00 0.00 42 1005.4
20260505182957 21 0 0.0 0.0 0.00 0.00 0.00 42 1005.5
20260505182457 21 0 0.0 0.0 0.00 0.00 0.00 40 1005.4
20260505181956 21 0 0.0 0.0 0.00 0.00 0.00 39 1005.4
20260505181458 21 0 0.0 0.0 0.00 0.00 0.00 39 1005.4
20260505180957 22 0 0.0 0.0 0.00 0.00 0.00 38 1005.3
20260505180456 22 0 0.0 0.0 0.00 0.00 0.00 38 1005.3
20260505180000 22 0 0.0 0.0 0.00 0.00 0.00 37 1005.3
20260505175456 22 0 0.0 0.0 0.00 0.00 0.00 36 1005.4
20260505174956 22 0 0.0 0.0 0.00 0.00 0.00 35 1005.2
20260505174457 22 0 0.0 0.0 0.00 0.00 0.00 34 1005.3
20260505173957 22 0 0.0 0.0 0.00 0.00 0.00 33 1005.2
20260505172457 22 0 0.0 0.0 0.00 0.00 0.00 33 1005.1
20260505171957 23 0 0.0 0.0 0.00 0.00 0.00 30 1005.1
20260505171456 23 0 0.0 0.0 0.00 0.00 0.00 31 1005.0
20260505170958 23 0 0.0 0.0 0.00 0.00 0.00 31 1004.9
20260505170457 23 0 0.0 0.0 0.00 0.00 0.00 31 1005.0
20260505165457 24 0 0.0 0.0 0.00 0.00 0.00 30 1005.0
20260505164957 24 0 0.0 0.0 0.00 0.00 0.00 31 1005.1
20260505164457 24 0 0.0 0.0 0.00 0.00 0.00 30 1005.1
20260505163957 24 0 0.0 0.0 0.00 0.00 0.00 29 1005.2
20260505162957 25 0 0.0 0.0 0.00 0.00 0.00 28 1005.2
20260505162457 25 0 0.0 0.0 0.00 0.00 0.00 28 1005.3
20260505161957 25 0 0.0 0.0 0.00 0.00 0.00 29 1005.2
20260505160957 25 0 0.0 0.0 0.00 0.00 0.00 27 1005.3
20260505160458 25 0 0.0 0.0 0.00 0.00 0.00 26 1005.3
20260505152957 26 0 0.0 0.0 0.00 0.00 0.00 23 1005.3
20260505152457 27 0 0.0 0.0 0.00 0.00 0.00 24 1005.3
20260505151957 27 0 0.0 0.0 0.00 0.00 0.00 25 1005.2
20260505151459 27 0 0.0 0.0 0.00 0.00 0.00 25 1005.1
20260505150957 27 0 0.0 0.0 0.00 0.00 0.00 24 1005.2
20260505150457 27 0 0.0 0.0 0.00 0.00 0.00 24 1005.2
20260505140457 27 0 0.0 0.0 0.00 0.00 0.00 27 1005.7
20260505124959 28 0 0.0 0.0 0.00 0.00 0.00 26 1006.6
20260505124457 28 0 0.0 0.0 0.00 0.00 0.00 26 1006.5
20260505123957 28 0 0.0 0.0 0.00 0.00 0.00 29 1006.5
20260505123457 26 0 0.0 0.0 0.00 0.00 0.00 29 1006.5
20260505122959 25 0 0.0 0.0 0.00 0.00 0.00 30 1006.7
20260505122458 25 0 0.0 0.0 0.00 0.00 0.00 28 1006.7
20260505121958 25 0 0.0 0.0 0.00 0.00 0.00 28 1006.8
20260505121458 26 0 0.0 0.0 0.00 0.00 0.00 27 1006.9
20260505120959 26 0 0.0 0.0 0.00 0.00 0.00 27 1006.8
20260505120458 27 0 0.0 0.0 0.00 0.00 0.00 25 1006.9
20260505115958 28 0 0.0 0.0 0.00 0.00 0.00 27 1006.8
20260505115458 27 0 0.0 0.0 0.00 0.00 0.00 26 1006.9
20260505114959 27 0 0.0 0.0 0.00 0.00 0.00 30 1007.0
20260505114459 27 0 0.0 0.0 0.00 0.00 0.00 26 1006.9
20260505113958 28 0 0.0 0.0 0.00 0.00 0.00 28 1007.0
20260505113459 28 0 0.0 0.0 0.00 0.00 0.00 28 1006.9
20260505112458 27 0 0.0 0.0 0.00 0.00 0.00 30 1007.0
20260505111958 27 0 0.0 0.0 0.00 0.00 0.00 29 1007.0
20260505111458 28 0 0.0 0.0 0.00 0.00 0.00 28 1007.0
20260505110958 28 0 0.0 0.0 0.00 0.00 0.00 27 1007.1
20260505110458 28 0 0.0 0.0 0.00 0.00 0.00 29 1007.1
20260505101958 27 0 0.0 0.0 0.00 0.00 0.00 29 1007.4
20260505101458 26 0 0.0 0.0 0.00 0.00 0.00 28 1007.5
20260505100958 26 0 0.0 0.0 0.00 0.00 0.00 29 1007.5
20260505095459 27 0 0.0 0.0 0.00 0.00 0.00 33 1007.6
20260505094958 27 0 0.0 0.0 0.00 0.00 0.00 33 1007.6
20260505094458 26 0 0.0 0.0 0.00 0.00 0.00 32 1007.6
20260505093958 26 0 0.0 0.0 0.00 0.00 0.00 35 1007.8
20260505093459 26 0 0.0 0.0 0.00 0.00 0.00 34 1007.8
20260505092959 26 0 0.0 0.0 0.00 0.00 0.00 37 1007.8
20260505092459 26 0 0.0 0.0 0.00 0.00 0.00 36 1007.9
20260505091959 26 0 0.0 0.0 0.00 0.00 0.00 36 1008.0
20260505091458 25 0 0.0 0.0 0.00 0.00 0.00 39 1008.1
20260505090959 25 0 0.0 0.0 0.00 0.00 0.00 37 1008.2
20260505085958 25 0 0.0 0.0 0.00 0.00 0.00 38 1008.3
20260505085500 25 0 0.0 0.0 0.00 0.00 0.00 37 1008.3
20260505084959 25 0 0.0 0.0 0.00 0.00 0.00 37 1008.4
20260505084459 25 0 0.0 0.0 0.00 0.00 0.00 39 1008.5
20260505083958 25 0 0.0 0.0 0.00 0.00 0.00 38 1008.5
20260505083000 24 0 0.0 0.0 0.00 0.00 0.00 40 1008.7
20260505082500 24 0 0.0 0.0 0.00 0.00 0.00 39 1008.8
20260505082000 23 0 0.0 0.0 0.00 0.00 0.00 38 1008.7
20260505081500 24 0 0.0 0.0 0.00 0.00 0.00 38 1008.8
20260505080959 24 0 0.0 0.0 0.00 0.00 0.00 40 1008.9
20260505080459 24 0 0.0 0.0 0.00 0.00 0.00 39 1008.9
20260505075000 22 0 0.0 0.0 0.00 0.00 0.00 40 1009.0
20260505074459 22 0 0.0 0.0 0.00 0.00 0.00 42 1009.1
20260505073959 22 0 0.0 0.0 0.00 0.00 0.00 40 1009.1
20260505073459 22 0 0.0 0.0 0.00 0.00 0.00 45 1009.2
20260505072959 22 0 0.0 0.0 0.00 0.00 0.00 44 1009.3
20260505072500 22 0 0.0 0.0 0.00 0.00 0.00 40 1009.3
20260505071958 22 0 0.0 0.0 0.00 0.00 0.00 43 1009.4
20260505071458 22 0 0.0 0.0 0.00 0.00 0.00 43 1009.4
20260505071000 22 0 0.0 0.0 0.00 0.00 0.00 45 1009.4